Regional Weather Roundup
Issued by NWS Kansas City/Pleasant Hill, MO

Home | Current Version | Previous Version | Graphics & Text | Print | Product List | Glossary Off
Versions: 1 2 3 4 5 6 7 8 9 10 11 12 13 14 15 16 17 18 19 20 21 22 23 24 25 26 27

000
ASUS43 KEAX 282310
RWREAX

WEATHER ROUNDUP FOR EASTERN KANSAS AND NORTHWEST MISSOURI
NATIONAL WEATHER SERVICE KANSAS CITY/PLEASANT HILL MO
600 PM CDT WED SEP 28 2016

KSZ040-057-103>105-MOZ028-029-037-043-290000-
...KANSAS CITY METROPOLITAN AREA...

CITY           SKY/WX    TMP DP  RH WIND       PRES   REMARKS
K.C. INTL      MOSUNNY   64  46  52 N13       30.18R
K.C. DOWNTOWN  SUNNY     66  46  48 N15       30.17R
LEES SUMMIT    SUNNY     64  48  56 NE10      30.18R
OLATHE - IXD   SUNNY     65  47  52 N13       30.18R
OLATHE - OJC   SUNNY     64  46  52 NE13      30.17R
LAWRENCE       SUNNY     67  47  48 N14       30.18R

$$

MOZ001>008-011>017-020>025-030>033-038>040-044>046-053-054-290000-
...NORTHERN AND CENTRAL MISSOURI...

CITY           SKY/WX    TMP DP  RH WIND       PRES   REMARKS
ST. JOSEPH     SUNNY     65  47  52 N10       30.19R
MOSBY          MOCLDY    64  45  48 N10G21    30.19R
WHITEMAN AFB   MOSUNNY   65  48  53 N15       30.14R
CLINTON        SUNNY     66  48  52 N13       30.14R
SEDALIA        PTSUNNY   67  47  48 N15G23    30.15R
WARSAW         NOT AVBL
CHILLICOTHE      N/A     64  48  56 N7        30.19R
KIRKSVILLE     CLOUDY    60  49  66 NW9       30.16R

$$

MOZ041-047>049-056>058-063>065-088>090-097-290000-
...EASTERN AND SOUTHERN MISSOURI...

CITY           SKY/WX    TMP DP  RH WIND       PRES   REMARKS
ST. LOUIS INTL MOCLDY    63  44  50 N18G25    30.09R
SPIRIT OF STL  MOCLDY    63  47  55 N13       30.09R
COLUMBIA       CLOUDY    63  47  55 N15       30.14R
JEFFERSON CITY MOCLDY    66  46  48 N13G22    30.13R
ROLLA          PTCLDY    64  46  52 N12       30.09R
OSAGE BEACH    SUNNY     64  48  56 N7        30.12R
SPRINGFIELD    SUNNY     68  46  45 N14       30.09R
BRANSON        SUNNY     72  45  37 N12G17    30.07R
JOPLIN         SUNNY     69  48  47 N10       30.11R
WEST PLAINS    SUNNY     68  44  42 N8        30.08R

$$

IAZ060-094-KSZ022-034>040-054-083-096-NEZ052-066-093-290000-
...KANSAS...SOUTHEAST NEBRASKA AND IOWA...

CITY           SKY/WX    TMP DP  RH WIND       PRES   REMARKS
TOPEKA         SUNNY     66  46  48 N12       30.18R
MANHATTAN      SUNNY     69  45  41 NE13      30.19R
EMPORIA        SUNNY     67  46  47 N13       30.17R
CHANUTE        LGT RAIN  69  48  47 N9G20     30.14R
WICHITA        MOSUNNY   73  47  39 NE16      30.15R
OMAHA          MOSUNNY   64  46  52 N13       30.24R
LINCOLN        SUNNY     68  45  43 NE12      30.24R
FALLS CITY     SUNNY     65  46  50 NE9G18    30.20R
LAMONI         CLOUDY    59  48  67 N15       30.20R
DES MOINES     CLOUDY    61  49  64 N12G20    30.20R

$$





USA.gov is the U.S. government's official web portal to all federal, state and local government web resources and services.